Temp
16 17 17 18 18 18 18 18 18 18 19 19 18 18 18 19 20 19 19 18 16 15 14 13 13 14 14 14 14 15 15 15 15 16 16 15 15 15 15 15 15 15 15 15 16 16 16 16 16 16 16 16 15 15 15 15 15 15 15 16 16 16 16 16 16 16 16 15 15 15 15 16 16 16 16 16 16 16 16 16 16 16 16 16 16 16 16
16 16 16 16 17 17 17 17 17 18 18 18 17 17 17 18 17 17 17 15 14 14 14 13 13 14 14 15 15 15 15 15 15 15 15 15 15 15 15 15 15 15 15 15 15 15 15 15 16 16 16 16 16 15 15 15 15 15 15 15 16 16 16 16 16 16 16 15 15 15 15 16 16 16 16 16 16 16 16 16 16 16 16 16 16 16 15
16 16 16 15 15 15 16 16 16 16 17 17 17 17 17 17 16 15 15 13 13 13 14 13 13 14 14 15 15 15 15 15 15 15 15 15 15 15 14 14 14 14 15 15 15 15 15 15 15 15 15 15 15 15 15 16 15 15 15 15 15 16 16 16 15 16 16 15 15 15 15 15 15 15 16 15 15 15 16 16 16 16 16 16 15 15 15
16 16 16 16 15 15 15 15 15 15 15 15 15 14 15 16 16 15 15 14 13 13 14 13 14 14 14 14 14 14 14 15 14 14 14 13 13 14 14 14 14 14 14 14 14 14 14 15 15 15 15 15 15 15 15 15 15 15 15 15 15 15 15 15 15 15 15 15 15 15 15 15 15 15 15 15 15 15 15 15 15 15 15 15 15 15 15
17 16 16 16 16 15 15 15 14 14 13 12 12 12 12 13 15 16 16 15 14 13 14 13 13 14 13 13 13 13 12 12 12 12 12 12 12 12 12 12 12 12 13 13 13 13 14 14 14 14 14 14 14 14 15 15 15 16 16 16 16 16 16 16 15 15 15 15 15 15 15 15 15 15 15 15 14 14 14 14 14 14 14 14 14 14 14
17 16 16 16 15 15 14 13 12 13 13 13 12 12 11 12 13 14 15 14 13 13 14 13 13 13 12 12 12 12 11 11 10 10 10 11 10 10 10 10 11 11 11 11 11 12 12 12 13 13 13 14 14 14 15 15 15 15 16 16 16 16 16 16 16 16 16 16 15 15 15 15 15 14 14 14 14 14 14 14 14 14 14 14 14 14 14
17 16 15 15 14 14 13 12 12 13 14 14 13 12 12 12 13 13 13 12 12 13 13 12 12 12 12 12 11 11 11 10 9 9 9 9 9 8 8 9 10 10 9 9 9 10 10 11 11 12 12 13 14 14 14 15 15 15 15 15 15 15 15 15 15 15 16 16 16 15 15 15 15 15 14 14 14 14 14 14 14 14 14 14 14 14 14
16 15 15 15 13 12 11 11 12 13 13 14 14 12 12 12 13 13 12 12 12 12 11 11 12 11 11 11 11 10 10 9 9 8 9 8 8 8 8 8 9 9 9 9 8 8 10 10 10 10 10 11 13 14 14 14 15 15 15 15 15 15 15 15 15 15 15 15 15 15 15 15 15 15 15 15 14 14 14 14 14 14 14 14 14 14 14
15 16 16 15 13 12 12 11 12 13 13 13 14 13 11 11 13 14 13 12 12 12 11 11 12 12 12 11 10 10 10 10 10 10 10 9 9 9 9 9 9 9 10 10 9 9 10 10 9 10 10 11 12 13 13 14 14 15 15 15 15 15 15 15 15 15 15 15 15 15 15 15 15 15 15 15 15 14 14 14 14 14 13 14 14 14 13
15 16 16 15 14 14 13 12 12 12 12 12 13 13 11 10 12 13 12 12 12 12 12 12 12 12 13 12 11 10 10 10 10 11 10 10 10 10 9 9 9 9 9 9 10 10 10 10 9 9 10 10 11 12 12 13 13 14 14 14 14 14 14 14 14 14 14 14 15 15 15 15 15 15 15 15 15 15 14 14 14 14 13 13 13 13 13
15 15 15 15 15 13 12 11 11 12 12 11 12 14 13 11 11 13 12 12 12 12 12 12 12 12 14 13 11 10 10 10 10 10 10 10 10 9 9 8 9 9 9 9 9 9 9 9 9 9 9 9 10 11 11 11 12 13 13 13 13 13 13 13 13 14 14 14 14 14 14 15 14 14 15 15 15 15 14 15 14 14 14 13 13 13 12
14 14 15 15 13 11 10 11 11 12 12 11 12 14 13 11 11 13 12 12 12 12 12 12 12 12 13 12 10 9 10 10 9 9 9 9 9 9 8 7 7 8 8 8 9 9 8 8 8 8 8 9 9 10 10 10 11 12 11 11 11 12 12 12 12 13 13 13 13 14 14 14 14 14 14 15 15 14 14 15 15 14 14 14 13 13 12
14 14 14 14 12 10 10 10 10 10 11 11 12 13 12 11 11 12 12 12 12 12 12 12 12 10 10 10 9 9 10 9 9 9 8 8 8 8 8 7 7 8 8 8 8 8 8 7 7 7 8 8 9 9 10 10 10 11 10 10 10 11 11 11 12 12 13 13 13 13 13 13 13 13 14 14 14 14 14 15 15 14 14 14 13 12 12
14 13 13 14 12 9 8 9 9 10 11 12 12 11 11 11 12 11 11 11 11 11 11 11 11 10 10 10 9 9 9 9 9 9 8 8 8 8 7 7 7 7 7 8 7 7 7 7 7 7 7 7 8 8 9 9 10 10 9 9 9 10 10 11 11 11 12 12 12 12 12 13 13 13 13 14 14 14 14 15 14 14 14 14 13 13 12
12 13 12 12 11 8 8 9 9 9 10 11 10 10 11 11 11 11 11 11 10 11 10 10 10 10 9 9 9 9 8 8 8 8 8 8 8 7 7 7 7 6 7 7 7 7 7 6 6 6 6 6 7 7 8 8 8 8 8 8 9 9 9 9 10 10 11 11 11 11 12 12 13 13 13 13 13 13 14 14 14 14 14 14 14 13 13
11 13 11 10 9 9 9 10 10 10 10 11 11 11 11 11 11 11 10 10 10 10 10 9 9 9 8 8 8 8 8 8 8 8 7 7 7 7 7 7 6 6 6 6 6 6 6 6 5 5 5 6 6 6 6 7 7 7 7 7 8 8 8 9 9 10 10 11 11 11 12 12 12 13 13 13 13 13 14 14 14 14 14 14 14 14 13
9 10 9 9 9 10 10 10 10 10 10 11 11 11 11 10 10 11 10 9 9 9 9 9 9 8 8 7 7 7 7 7 7 7 7 7 6 6 6 6 5 5 5 6 6 6 6 5 5 5 5 5 5 5 5 5 5 5 6 6 7 7 8 8 9 9 10 10 11 11 11 12 12 12 13 13 13 13 14 14 14 14 14 14 14 14 13
9 9 9 9 9 9 9 9 9 9 9 10 10 10 10 9 9 9 9 8 8 8 8 8 8 7 6 6 6 6 6 7 7 6 6 6 6 5 6 5 5 4 5 5 5 5 5 5 5 5 5 5 5 5 5 5 5 5 5 5 5 6 7 8 8 9 9 10 10 11 11 11 12 12 13 13 13 13 13 13 13 14 14 14 14 14 13
9 9 9 9 9 8 9 9 8 8 8 8 8 8 7 7 7 7 7 7 6 6 7 6 6 6 5 5 6 5 6 6 6 6 6 6 5 5 5 5 4 4 5 5 5 5 5 5 6 6 6 6 6 6 6 6 5 5 5 5 5 5 5 6 7 8 9 9 10 10 11 11 12 12 12 13 13 13 12 12 12 12 11 12 13 14 14
10 9 9 9 9 9 9 9 9 8 8 7 7 7 7 6 6 6 6 6 6 6 5 5 5 5 5 5 5 5 6 6 6 6 6 5 5 5 5 4 4 4 5 5 5 5 6 6 7 7 6 6 6 6 6 5 5 5 5 5 5 5 5 5 6 7 8 9 9 10 10 11 11 12 12 12 13 12 12 13 12 11 10 10 11 12 12
10 9 9 9 9 9 9 9 9 9 9 8 8 8 7 7 7 7 7 7 6 6 6 6 6 6 6 6 5 5 6 6 6 6 6 5 5 5 5 4 4 4 4 5 5 6 6 6 6 6 6 6 6 5 5 5 5 5 4 4 4 4 4 5 5 6 6 7 8 9 10 10 11 12 12 12 12 12 12 12 12 11 11 10 10 9 9
9 9 9 9 9 9 9 9 9 9 9 9 8 8 8 8 8 7 7 7 7 7 6 6 6 5 5 6 6 6 6 6 6 6 5 5 5 4 4 4 4 4 5 5 5 5 5 5 5 5 5 5 5 5 5 5 4 4 4 3 4 4 4 4 5 6 6 7 7 8 9 10 11 11 10 10 10 11 11 11 11 11 11 10 10 9 8
10 10 10 10 10 10 10 9 9 9 9 9 8 8 8 7 7 7 7 7 6 7 6 6 6 6 5 6 6 6 6 6 6 5 4 4 4 4 4 4 4 5 5 5 4 4 5 4 5 5 5 5 5 4 4 4 3 3 3 3 3 3 3 4 4 5 5 6 6 7 8 9 10 11 10 9 9 9 10 10 10 10 10 9 9 9 8
10 10 10 10 10 10 9 9 9 9 9 8 8 8 8 8 8 8 7 7 6 6 6 6 6 6 5 5 5 5 5 5 5 4 3 3 3 3 3 4 4 4 4 4 4 4 4 4 4 4 4 4 4 3 3 3 2 2 2 2 2 2 3 3 3 4 4 5 5 6 7 8 9 10 10 10 9 8 8 9 9 9 9 9 8 9 9
10 10 10 10 9 9 9 9 9 8 8 8 8 7 8 8 8 7 7 6 6 6 6 6 6 5 4 4 4 4 4 4 4 3 2 3 3 3 3 3 3 3 3 3 3 4 4 4 4 4 4 3 3 2 2 2 2 1 1 2 2 2 2 2 2 3 3 4 4 5 6 7 8 9 10 10 10 8 7 6 7 8 8 8 8 8 9
10 10 9 9 9 9 9 9 8 8 8 8 8 8 7 6 6 6 6 6 6 5 5 5 5 4 4 3 3 3 3 3 2 2 2 3 3 3 3 3 3 3 3 3 3 4 4 4 4 3 3 2 2 1 1 1 1 1 1 1 1 1 1 1 1 2 3 3 4 4 5 6 7 8 9 10 10 10 8 6 6 6 7 7 8 8 8
10 10 9 9 8 8 8 8 8 8 8 8 8 8 7 6 5 5 5 5 5 5 5 5 4 4 3 3 3 3 2 2 2 2 3 3 3 3 3 2 2 3 3 3 4 4 3 3 3 3 2 2 1 1 0 0 0 -0 0 0 0 0 1 1 1 1 2 2 3 4 4 5 6 8 9 9 10 10 10 9 8 8 7 6 6 7 7
9 9 9 9 8 8 8 8 8 8 8 8 8 8 7 6 6 6 6 5 5 5 5 5 4 4 4 3 3 3 3 2 3 3 3 2 2 2 2 2 2 3 3 3 4 4 3 3 3 2 1 1 1 0 0 -0 -0 -0 -0 -0 0 0 0 0 0 0 1 1 2 2 3 4 5 6 8 8 9 10 10 10 10 10 8 6 5 6 6
9 9 9 9 8 9 8 8 7 7 7 7 7 7 6 6 6 6 6 5 5 5 5 5 4 4 4 3 3 3 3 3 3 3 2 2 2 1 2 2 2 2 3 4 4 4 3 3 2 2 1 1 0 0 0 0 0 0 0 0 0 0 0 0 0 0 0 0 1 1 2 2 3 5 7 8 8 9 10 10 11 11 8 6 4 4 4
8 8 8 8 8 8 8 7 7 7 7 7 7 7 6 6 6 5 6 6 5 5 5 5 5 4 4 3 3 3 2 2 1 1 1 1 1 0 0 0 1 2 3 4 3 3 2 1 1 1 1 0 0 0 0 0 0 1 1 1 1 1 1 0 0 0 0 0 0 1 1 1 2 4 6 7 8 9 10 10 10 10 9 7 6 4 3
8 8 7 7 7 8 7 7 7 7 7 7 7 6 6 6 5 5 6 6 6 5 5 5 4 4 3 2 2 2 1 0 -1 -1 -0 -0 -1 -1 -1 -1 -1 0 1 1 1 0 0 1 1 2 2 1 0 -0 0 0 0 1 2 2 2 1 1 0 -0 0 0 0 0 0 1 1 2 3 5 7 7 8 9 9 9 9 9 8 7 6 4
7 7 7 7 7 7 7 7 7 7 6 6 6 6 6 6 5 5 6 6 6 5 5 4 4 3 2 1 1 0 -0 -1 -1 -1 -1 -1 -1 -1 -1 -1 -1 -1 -1 -0 -0 0 1 2 2 3 2 0 0 0 0 0 0 1 2 3 2 2 1 0 -0 -0 -0 -0 0 1 1 2 3 4 5 6 7 8 9 9 9 9 8 8 8 7 5
7 7 7 7 7 7 7 7 7 7 6 6 6 6 7 6 6 6 6 6 5 5 4 4 3 2 1 1 0 -0 -1 -1 -1 -1 -1 -1 -1 -1 -0 -0 -1 -1 -0 -0 0 2 2 3 3 2 1 0 0 1 0 0 0 1 1 2 2 1 1 0 -0 -0 -0 -0 0 1 1 2 4 5 6 6 7 8 8 9 8 8 8 8 8 7 5
8 8 8 8 8 7 7 7 7 7 6 6 6 7 7 6 6 6 6 5 5 5 4 3 2 2 1 1 0 -1 -1 -1 0 0 -1 -2 -1 -0 0 0 0 0 0 1 1 2 3 2 2 1 1 1 1 1 0 0 1 1 1 1 1 1 1 0 -0 -0 -0 0 0 1 1 3 4 5 6 6 7 7 8 8 8 8 8 7 6 5 4
8 8 8 8 8 7 7 7 7 6 6 6 6 6 6 6 6 6 5 5 5 4 3 2 2 1 1 1 -0 -1 -1 -1 -1 -1 -2 -2 -1 -0 -0 0 0 0 0 1 2 3 2 2 2 1 1 2 2 1 -0 0 1 1 1 1 1 1 1 1 1 1 1 1 1 2 2 3 4 4 5 5 6 6 6 6 6 6 6 5 4 3 3
8 8 8 7 7 7 7 7 7 7 7 6 5 5 6 6 6 5 5 5 5 4 3 2 1 1 1 1 0 -0 -1 -1 -1 -1 -2 -1 -0 -0 -1 -1 -1 -0 1 2 3 2 2 2 2 2 2 3 3 2 0 -0 0 1 1 1 1 1 1 1 2 2 2 2 2 2 2 2 3 4 4 5 5 5 5 5 5 5 5 4 4 3 2
8 8 8 7 7 6 6 7 7 7 7 6 5 5 6 6 6 6 5 5 5 4 3 2 1 1 1 1 1 -0 -1 -1 -1 -1 -1 -1 -1 -1 -1 -0 0 1 2 3 2 1 1 2 2 2 3 4 4 3 1 -0 -0 0 1 1 1 1 1 2 2 2 2 2 2 2 2 3 4 4 5 5 5 5 5 5 4 4 4 4 3 3 2
7 7 7 7 7 6 6 6 6 6 6 6 5 5 6 6 6 6 5 5 5 4 3 2 2 1 1 1 0 -0 -1 -1 -1 -1 -1 -1 -1 -1 -0 1 1 1 2 1 0 0 1 2 2 2 3 4 4 3 2 0 0 1 0 0 0 1 1 2 2 2 3 3 3 3 4 4 5 5 6 6 5 5 4 4 4 4 4 3 3 3 2
7 7 7 6 6 6 6 6 6 6 6 6 6 6 6 6 6 5 5 5 5 4 3 3 3 3 2 1 1 0 -0 -1 -1 -1 -1 -1 -1 -1 0 1 1 0 0 -0 -0 0 1 2 2 2 3 3 3 3 2 2 2 2 1 1 0 0 0 1 1 2 2 2 2 3 4 4 5 5 6 5 5 4 3 3 3 3 3 2 2 2 1
7 7 7 6 6 6 6 6 6 6 6 6 6 6 6 6 6 6 6 6 5 4 4 4 4 4 4 3 3 2 1 -0 -0 -1 -1 -1 -0 1 2 2 1 -0 -0 -0 -0 0 1 1 1 2 3 3 3 3 2 2 3 3 2 1 1 0 -0 -0 -0 1 1 1 1 2 2 3 3 4 4 4 4 4 3 3 2 2 1 1 1 0 0
8 7 7 7 7 7 6 6 6 6 6 6 6 6 6 6 6 6 6 6 5 5 4 4 4 4 4 4 3 3 2 1 1 1 1 1 2 3 4 3 1 -0 -0 -0 -0 1 1 1 1 1 2 2 2 2 2 3 4 4 3 2 2 1 0 -0 -1 -1 -1 -0 -0 0 1 1 1 1 2 2 3 3 3 3 2 2 1 0 -0 -0 -0
8 7 7 7 7 7 7 7 6 6 6 6 6 6 6 6 6 6 6 6 5 5 5 4 4 3 3 3 3 3 3 2 2 2 2 2 2 3 4 3 1 -0 -0 -0 0 1 2 1 1 1 1 1 1 2 2 3 4 4 4 3 2 1 1 1 0 -0 -1 -1 -1 -1 -1 -0 0 0 0 0 1 1 1 1 1 1 1 0 -0 -0 -0
8 8 8 7 7 7 7 7 7 7 6 6 6 6 6 6 6 6 6 6 5 5 5 4 3 3 3 3 3 3 3 3 3 3 3 2 1 1 1 1 1 -0 -1 -1 -0 1 2 1 1 1 1 2 2 2 3 3 4 4 4 3 3 2 2 1 1 0 -0 -1 -1 -1 -1 -1 -1 -1 -1 -1 -1 -1 -1 -1 -1 -0 -0 -0 -1 -0 -0
8 8 8 8 7 7 7 7 7 7 7 6 6 6 6 6 6 6 6 6 5 5 5 5 4 4 4 3 4 4 4 4 4 4 4 4 3 1 -0 -0 -0 -1 -1 -1 0 1 1 0 0 1 1 2 2 2 3 3 3 3 3 3 3 3 2 2 1 1 -0 -1 -1 -1 -1 -1 -1 -1 -1 -1 -1 -1 -1 -1 -1 -1 -1 -1 -1 -1 -1
8 8 8 8 8 7 7 7 7 7 7 6 6 6 6 6 6 6 6 6 5 5 5 5 4 4 4 4 4 4 3 3 3 3 4 5 5 3 0 -1 -1 -1 -1 -1 -0 1 0 -0 0 1 1 1 2 2 3 3 3 2 2 2 3 3 3 2 2 1 1 0 -0 -0 -0 -1 -1 -1 -1 -1 -1 -1 -1 -1 -1 -1 -1 -1 -1 -1 -1
8 8 8 7 7 7 7 7 7 7 7 6 6 6 6 6 6 6 6 6 6 5 5 5 4 4 4 4 3 3 3 3 2 2 3 3 3 2 -0 -1 -1 -2 -2 -1 -0 -0 -0 -1 -0 0 1 1 2 2 3 3 3 3 2 2 3 3 3 3 2 2 1 1 1 0 0 -0 -0 -1 -1 -1 -1 -1 -1 -1 -1 -1 -1 -1 -1 -1 -1
8 8 7 7 7 8 7 7 7 7 7 7 7 7 6 6 6 6 6 6 6 5 5 5 4 4 4 3 3 4 4 4 3 2 2 2 1 0 -0 -1 -1 -2 -2 -1 -1 -1 -1 -1 -1 -0 -0 1 1 2 2 2 2 2 2 2 3 3 3 3 2 2 2 1 1 1 1 0 0 -0 -1 -1 -1 -1 -1 -1 -1 -1 -1 -1 -1 -1 -1
8 8 7 7 7 7 7 6 6 6 7 7 7 7 7 6 6 6 6 6 6 5 5 5 5 4 4 3 3 3 3 4 4 4 3 2 2 1 0 -0 -1 -2 -1 -1 -1 -2 -2 -2 -1 -1 -1 0 1 2 2 2 2 2 2 2 2 2 3 3 2 2 2 1 1 1 1 1 0 -0 -0 -1 -1 -1 -2 -2 -1 -1 -1 -2 -2 -2 -2
8 8 7 7 7 7 6 6 7 7 7 7 7 7 7 7 6 6 6 6 6 6 6 5 5 5 4 3 3 3 3 3 4 4 3 2 1 1 1 -0 -1 -1 -1 -0 -0 -1 -2 -2 -2 -2 -1 0 1 1 1 1 1 1 1 0 0 0 1 1 1 1 0 0 0 -0 -0 -0 -1 -1 -1 -2 -2 -2 -3 -3 -3 -3 -3 -3 -3 -3 -3
8 8 7 7 7 7 7 7 7 8 8 8 7 7 7 7 7 7 6 6 6 6 6 6 6 5 5 4 4 4 3 3 2 2 2 1 1 1 0 -0 -1 -1 -1 -1 -0 -1 -1 -1 -1 -1 -1 0 1 0 0 0 0 -0 -0 -0 -0 -1 -1 -1 -1 -1 -0 -1 -1 -1 -1 -1 -2 -2 -3 -3 -3 -4 -4 -4 -4 -4 -4 -4 -4 -4 -4
8 8 8 8 8 8 7 7 7 8 8 8 7 7 7 7 7 7 7 6 6 6 6 6 6 6 6 5 5 4 4 3 2 2 1 1 1 0 -0 -0 -1 -1 -1 -1 -1 -0 -0 -1 -1 -1 -1 0 0 -0 -1 -0 -0 -1 -1 -0 -0 -1 -1 -1 -1 -1 -1 -1 -1 -1 -2 -2 -2 -3 -3 -3 -4 -4 -4 -4 -4 -4 -4 -5 -5 -5 -5
7 7 7 7 7 7 7 7 7 7 7 7 7 7 6 6 7 7 7 6 6 6 6 7 7 6 6 6 6 5 4 3 3 2 2 1 1 1 0 -0 -0 -0 -1 -1 -0 -0 -0 -1 -1 -1 -1 -0 -0 -1 -1 -1 -1 -1 -1 -1 -1 -1 -1 -1 -1 -1 -1 -1 -1 -2 -2 -2 -3 -3 -3 -3 -4 -4 -4 -4 -5 -5 -5 -5 -5 -6 -6
Height
768 767 764 759 756 757 758 759 760 758 755 755 758 762 762 756 755 759 758 762 774 783 789 796 797 795 795 795 795 795 795 795 795 796 798 799 800 801 802 802 803 803 804 803 803 804 804 804 804 805 805 805 805 806 806 806 807 807 808 808 808 809 809 810 811 812 813 814 814 816 816 817 819 819 821 822 823 824 825 825 827 827 828 829 830 831 832
770 769 768 767 766 767 766 764 764 763 761 761 763 766 764 762 765 767 768 775 784 789 793 797 797 796 796 795 795 795 796 797 797 798 801 802 804 805 805 806 806 806 806 806 807 807 807 807 807 807 806 806 806 806 807 807 808 808 809 809 809 810 810 811 812 813 813 814 815 815 816 817 818 818 819 820 821 822 823 824 825 826 827 828 828 829 830
770 768 769 771 772 773 773 772 771 769 768 767 766 768 768 767 772 777 780 787 793 793 794 797 797 796 795 796 797 797 798 799 800 802 804 806 808 809 810 810 809 809 809 810 810 810 810 810 809 808 808 807 808 808 808 809 809 809 810 810 811 811 811 812 813 813 814 814 815 815 816 817 817 818 819 819 820 821 821 822 823 824 825 826 827 828 829
766 765 767 768 770 775 776 775 775 776 777 777 777 779 778 774 775 779 781 784 791 794 795 797 797 796 797 799 801 802 803 803 804 806 808 811 812 813 815 815 814 813 813 813 813 813 812 812 811 810 809 809 810 810 810 810 810 811 811 811 812 812 813 813 813 814 814 814 815 815 816 816 817 817 818 818 819 820 820 821 822 823 823 824 825 827 827
760 761 763 764 769 775 775 773 775 779 784 788 788 788 788 784 779 777 775 779 789 795 795 797 798 799 801 803 805 807 810 811 811 812 813 815 816 818 819 820 819 818 817 816 816 815 814 814 813 812 811 811 812 812 812 812 812 812 812 812 813 813 813 813 814 814 814 814 814 815 815 815 815 816 816 817 817 818 819 820 820 821 821 822 823 824 825
760 761 762 768 774 775 775 778 780 780 780 783 787 791 793 791 787 782 780 786 793 795 795 798 801 803 806 808 809 811 814 816 818 819 820 821 821 822 823 823 823 822 821 820 819 818 817 817 816 815 814 813 813 813 813 813 813 813 813 813 813 813 813 813 813 814 814 813 814 814 814 814 815 815 815 815 816 816 817 818 818 819 819 820 820 821 822
758 762 768 775 778 776 779 784 783 780 777 778 785 792 793 790 788 789 790 793 796 796 798 801 803 806 809 811 813 816 817 819 822 824 826 826 826 826 827 827 826 825 824 823 821 821 821 820 819 818 817 816 815 814 814 814 814 814 814 814 814 814 814 814 814 814 813 813 813 813 813 814 814 814 814 814 814 815 815 816 816 817 817 817 818 819 820
760 765 767 772 779 783 786 787 782 781 780 778 781 789 794 790 787 788 792 796 799 801 804 805 807 809 810 812 816 819 821 822 824 826 826 827 828 829 830 830 828 826 825 824 823 823 823 822 821 820 819 818 817 816 816 815 815 815 814 814 815 815 814 814 814 814 814 813 813 813 813 813 813 813 813 812 813 813 813 814 814 814 815 815 816 816 817
762 759 758 766 777 782 785 786 785 783 783 781 779 785 796 798 790 788 793 797 800 803 805 806 807 807 808 811 817 820 821 822 823 824 825 827 828 830 831 830 828 826 824 823 823 823 822 821 820 819 819 819 818 818 818 817 816 816 815 815 815 815 815 814 814 814 814 813 813 813 813 812 812 812 811 811 811 811 811 811 811 812 813 813 814 814 815
761 756 759 766 770 772 778 784 786 786 787 787 782 782 794 801 795 791 794 798 800 803 804 805 808 806 803 807 816 820 821 822 823 824 825 826 827 828 828 827 825 824 823 822 821 821 821 820 820 820 820 820 819 819 819 818 818 817 816 816 816 816 816 815 815 814 814 813 813 812 812 812 811 811 811 810 810 810 810 809 810 810 811 811 812 813 813
762 760 761 761 764 776 785 787 788 788 787 789 785 779 785 797 798 794 796 800 802 804 805 806 808 803 797 802 816 822 822 824 825 825 826 826 827 827 826 826 824 823 823 822 822 822 822 821 821 821 821 820 820 819 819 819 819 818 817 818 817 817 817 816 815 815 814 813 813 812 812 811 811 810 810 809 809 809 809 808 808 809 809 810 811 811 811
766 766 762 760 771 789 794 791 791 790 788 791 787 777 780 794 799 796 798 802 803 805 806 806 807 806 802 807 819 824 823 825 827 826 827 827 826 826 826 826 826 825 824 824 823 823 823 822 822 821 821 821 820 820 820 819 819 818 818 818 818 817 817 816 815 815 814 813 813 812 811 811 810 809 809 808 808 808 808 807 806 807 808 809 809 810 811
765 769 766 765 778 796 798 795 796 794 791 790 784 779 787 797 799 798 800 803 804 805 805 804 807 813 814 816 821 824 823 825 826 826 827 827 826 827 827 827 826 825 825 824 824 824 823 823 822 822 821 821 821 820 820 819 818 818 818 817 817 816 816 815 814 814 813 813 812 811 810 810 809 808 808 807 807 807 807 806 805 805 806 807 809 809 810
767 771 770 769 781 799 803 800 799 798 794 789 788 792 798 799 800 802 804 806 807 808 808 808 811 816 819 820 822 823 824 825 826 826 827 826 827 827 827 827 827 826 825 825 824 824 824 823 823 822 821 821 821 820 819 819 818 818 817 817 816 815 815 814 813 812 812 812 811 810 809 809 808 807 806 806 806 806 805 805 804 804 804 806 808 808 809
773 771 775 778 786 801 806 801 800 800 798 797 799 803 802 801 804 807 807 810 812 811 813 815 816 818 821 822 824 824 825 826 826 827 827 827 827 828 827 827 827 826 826 825 824 824 823 823 822 822 821 821 820 819 819 818 818 817 816 816 815 814 813 813 812 811 810 810 809 809 808 807 806 805 805 804 804 804 804 804 804 803 803 804 806 807 808
780 772 781 792 797 801 801 798 799 802 802 802 803 803 803 805 807 807 810 814 816 815 817 819 820 822 824 825 826 826 827 828 828 828 828 828 828 828 827 827 826 826 825 824 823 823 823 822 822 821 820 820 819 819 818 817 817 816 815 814 813 812 811 810 810 809 808 807 807 806 805 805 804 803 803 802 802 802 803 802 802 802 802 803 803 805 806
795 789 796 804 804 802 800 800 802 805 805 804 803 803 806 809 809 810 813 817 819 819 820 821 822 825 826 827 828 829 828 829 829 829 829 829 828 828 827 826 826 826 824 823 823 822 821 821 821 820 820 819 818 817 817 816 815 814 813 812 811 810 809 808 807 806 805 804 804 804 803 803 802 801 800 800 800 800 800 800 800 800 801 801 802 803 804
803 804 806 807 805 806 807 807 808 809 809 809 809 809 811 814 815 817 818 820 822 823 823 823 825 827 829 829 830 830 830 830 830 829 829 829 829 828 827 826 825 825 823 823 822 821 821 821 820 819 819 818 817 816 816 815 814 812 811 810 809 808 806 805 804 803 802 801 800 800 800 799 799 798 797 797 796 797 797 798 798 798 799 800 800 802 803
800 804 808 808 809 810 811 811 813 814 814 815 816 816 818 820 821 822 823 825 826 826 826 828 828 829 831 831 830 830 830 830 829 829 829 829 828 827 826 826 825 824 823 822 822 821 821 820 818 818 817 816 815 815 814 813 812 811 810 808 807 806 804 803 801 800 798 797 797 796 796 795 795 794 794 793 793 793 794 795 796 797 798 798 799 800 801
797 802 808 809 810 811 810 810 813 816 817 819 820 821 823 824 824 826 827 827 828 829 830 831 831 830 831 831 831 831 830 829 829 829 828 828 827 826 826 825 825 824 823 822 822 822 820 818 817 816 816 815 814 813 812 811 810 809 807 806 805 804 803 801 800 798 796 795 794 793 792 792 791 790 790 790 790 790 790 791 792 793 795 798 799 800 801
801 805 808 810 811 812 812 812 813 814 816 819 820 821 822 823 824 826 827 827 828 829 830 830 830 830 830 830 830 830 829 828 828 827 827 827 826 826 826 825 825 824 824 823 822 821 819 818 817 816 815 814 812 811 810 809 808 807 806 805 803 802 801 799 797 796 794 793 791 790 789 788 787 786 786 786 787 787 788 788 789 790 792 795 797 799 801
800 803 805 807 806 806 809 813 815 816 817 818 819 821 821 822 824 825 826 827 828 829 830 830 830 830 830 830 830 829 828 828 827 827 827 827 826 826 826 825 824 824 823 822 821 820 819 818 816 815 814 812 811 810 809 807 806 805 804 802 801 800 799 797 795 794 792 790 789 788 786 785 784 783 783 784 785 785 786 786 786 787 789 792 795 797 801
797 799 802 805 804 803 807 812 815 817 818 819 820 821 822 823 825 826 826 827 828 828 829 830 830 830 830 830 830 829 828 828 827 828 828 827 826 826 825 824 824 823 822 821 820 819 818 817 816 814 813 811 809 808 806 805 804 803 801 800 798 797 796 795 794 792 791 789 788 786 783 782 781 780 780 781 782 783 783 784 785 786 788 790 792 795 799
800 801 804 806 806 807 810 813 815 818 820 820 821 822 823 825 826 827 827 828 829 829 830 830 830 830 831 831 830 830 829 829 829 829 829 829 828 826 825 825 824 822 822 821 820 819 818 816 814 813 811 809 807 805 804 803 801 800 799 798 796 794 793 792 791 791 789 787 786 784 782 780 778 777 776 777 779 780 781 782 783 785 787 789 791 793 796
803 804 807 809 810 812 814 816 817 820 821 821 822 823 825 825 826 827 829 829 829 830 830 830 830 831 832 832 832 831 831 830 830 830 830 829 828 827 826 825 824 823 823 821 820 818 816 814 813 811 808 806 805 803 801 800 799 797 796 794 792 791 790 789 788 787 787 786 784 782 781 779 776 774 773 774 775 776 778 780 782 783 785 787 789 791 793
807 808 810 812 813 815 816 816 818 820 822 823 823 824 826 828 828 829 830 830 830 831 831 831 831 832 833 833 832 832 832 831 831 831 830 828 827 827 826 825 824 823 822 820 819 817 815 813 811 809 806 804 803 801 799 798 796 794 792 791 789 788 787 786 785 784 783 783 782 780 778 777 774 773 771 771 771 772 774 778 780 782 783 785 787 789 790
810 810 812 813 814 816 817 816 818 820 822 823 824 824 826 828 830 830 830 830 831 832 832 832 832 832 832 832 832 832 832 831 830 830 828 827 827 826 825 825 824 822 821 819 817 815 813 811 809 807 804 802 800 798 797 795 792 791 788 787 785 783 782 782 781 781 780 780 779 778 777 775 773 771 770 770 770 769 770 773 776 778 780 781 783 786 787
812 812 813 813 814 816 817 818 820 821 823 823 824 825 826 828 829 829 829 830 831 831 831 831 831 832 832 832 831 831 831 830 829 828 828 827 827 826 825 824 822 820 819 817 815 814 812 810 807 805 802 800 798 796 794 792 789 787 784 782 781 779 778 777 777 777 777 777 777 777 776 774 772 770 768 768 768 768 768 769 772 774 776 778 781 783 784
813 814 815 815 816 817 818 820 821 822 823 824 825 826 827 828 828 828 828 829 830 830 830 829 830 831 831 831 831 830 830 829 828 827 827 827 826 825 824 823 821 819 818 816 814 813 811 809 806 803 800 798 796 794 792 789 787 784 781 779 777 775 773 773 773 773 773 774 774 774 774 774 773 770 767 766 766 766 766 767 769 771 773 776 778 781 782
813 815 815 816 818 818 818 820 821 821 822 824 825 826 827 827 827 827 827 828 829 829 829 829 829 830 830 830 830 830 829 829 829 828 827 826 826 825 824 822 820 818 816 815 814 812 810 808 805 802 799 797 795 792 790 787 784 781 778 776 773 771 770 770 770 771 771 771 772 772 772 772 772 769 766 765 765 765 766 766 768 770 772 774 777 779 781
814 815 816 817 818 818 818 819 820 820 822 823 824 825 827 827 826 826 826 827 827 828 828 829 829 829 830 830 830 830 830 829 829 827 827 826 825 824 823 821 820 818 816 815 813 811 809 807 804 801 799 796 793 791 788 785 782 779 776 773 771 769 768 767 768 769 769 769 770 770 770 770 769 768 765 764 764 765 765 766 768 770 772 774 777 779 780
814 815 817 817 818 817 817 818 819 820 821 823 824 825 825 826 826 826 825 825 826 827 828 828 829 830 830 830 830 830 829 828 827 827 826 825 824 823 821 820 819 818 816 814 812 811 809 806 803 800 798 795 793 790 788 784 781 778 776 773 771 769 767 767 767 768 768 768 769 769 768 768 766 765 764 763 763 764 765 766 768 770 772 774 777 779 781
813 814 815 816 816 817 817 817 818 819 821 822 824 824 824 824 825 826 825 825 826 826 827 828 828 829 830 829 829 829 828 827 826 825 825 824 823 821 820 819 817 816 815 813 811 810 808 805 803 800 797 795 793 790 787 784 781 778 776 774 772 770 768 767 767 767 767 768 768 767 767 766 764 762 761 762 762 763 764 766 767 769 771 774 776 779 781
811 811 812 813 814 815 815 816 817 818 820 822 823 823 823 824 825 825 825 825 826 826 827 827 828 828 829 828 828 828 827 827 826 825 824 823 821 820 819 817 816 815 813 812 811 810 807 805 803 800 797 794 792 790 786 783 780 778 776 774 772 770 769 768 767 767 767 767 767 766 766 765 763 762 762 762 762 763 764 766 768 770 772 774 776 778 780
811 812 812 813 814 815 815 815 816 818 819 821 822 823 823 824 824 824 825 825 825 825 826 826 827 827 827 827 827 827 827 826 826 825 824 822 820 819 818 816 815 814 813 811 810 809 807 805 803 800 796 794 792 789 786 783 780 778 776 774 772 771 770 768 768 767 767 766 766 766 765 765 765 764 764 763 764 764 765 767 769 771 773 774 777 779 781
812 812 813 814 814 815 815 815 816 817 818 820 823 824 824 823 823 823 824 824 824 824 825 825 826 826 826 826 826 826 826 825 825 824 823 821 820 819 817 816 815 814 812 810 809 808 806 804 802 799 796 794 792 789 786 783 780 779 777 775 773 772 771 769 768 767 767 766 766 766 766 766 766 766 765 766 766 767 767 768 770 772 774 775 777 779 782
812 812 813 814 814 815 816 816 816 817 818 820 822 823 822 822 822 822 822 823 823 823 824 824 825 825 825 825 825 825 825 824 824 823 822 821 820 819 817 816 815 813 811 810 809 807 805 803 801 798 796 794 792 790 787 784 782 780 778 776 775 774 772 771 769 768 768 768 767 767 767 767 767 767 767 767 768 769 770 771 773 774 775 776 778 780 783
812 813 813 814 814 815 816 816 817 818 819 820 821 822 822 822 822 821 821 821 822 823 823 823 823 824 824 824 824 824 823 823 823 822 821 820 819 818 817 815 814 813 812 810 808 807 805 803 800 798 797 795 793 791 789 785 783 782 780 778 777 775 774 773 771 770 770 770 769 769 768 768 768 768 768 769 770 771 771 773 775 776 777 778 780 782 784
812 813 813 814 814 815 816 816 817 818 819 820 820 820 820 821 821 820 820 820 821 821 822 821 822 822 822 822 822 822 822 822 821 821 820 819 818 817 816 815 814 814 812 811 809 807 806 803 800 799 798 797 794 793 790 787 785 784 782 780 779 777 776 775 774 773 773 772 771 771 770 770 770 770 770 771 772 773 774 775 777 778 779 781 782 784 786
811 812 813 813 814 814 815 816 817 817 818 819 819 819 819 820 819 819 819 819 819 820 820 820 820 820 820 820 820 820 820 820 820 819 819 818 817 816 815 814 814 814 812 810 809 807 805 803 801 800 799 797 795 794 791 788 787 786 784 783 782 780 779 778 777 776 776 775 775 774 774 774 774 774 773 774 775 775 776 778 779 780 782 783 785 787 788
810 810 811 812 812 813 814 815 815 816 817 817 818 818 818 818 818 818 818 818 818 819 819 819 819 818 818 818 819 819 819 819 819 818 818 817 816 814 813 813 813 813 812 810 808 807 805 804 802 801 799 797 796 794 792 790 789 788 787 785 784 783 782 781 780 779 779 779 778 778 778 778 778 778 778 778 778 779 780 781 782 783 785 786 788 790 791
808 809 810 810 811 812 812 813 814 814 815 815 816 817 817 818 818 817 817 817 818 818 818 818 818 818 818 818 818 818 818 818 818 817 817 816 815 814 813 813 813 813 811 810 809 807 806 805 804 802 799 797 796 795 793 792 791 790 789 788 787 786 785 784 783 783 782 782 781 781 782 781 782 782 782 783 783 784 784 785 786 787 788 790 791 793 794
807 808 809 809 809 810 810 811 812 812 813 813 814 815 816 816 816 816 816 816 817 817 817 817 817 817 818 818 817 817 817 817 816 816 815 815 815 815 814 814 813 813 811 810 809 808 807 806 804 802 800 798 797 795 795 794 793 792 791 790 790 789 788 787 787 786 786 785 785 785 785 785 785 785 786 786 787 787 788 788 789 790 791 793 795 796 798
805 806 807 807 808 808 809 809 810 810 811 811 812 813 814 815 815 815 815 815 815 816 816 816 816 816 817 817 816 816 815 815 815 814 813 813 813 814 814 814 813 812 811 810 810 809 808 806 805 803 801 799 798 797 797 796 795 794 793 793 792 791 791 790 790 790 789 789 789 788 788 788 788 788 789 789 790 791 791 792 793 794 796 798 799 800 802
803 804 805 805 806 806 807 807 808 809 809 810 810 811 812 813 813 814 814 814 814 815 815 815 815 815 815 816 815 815 815 815 814 814 813 812 812 813 813 813 813 812 811 810 810 810 809 807 805 803 802 801 799 799 798 798 797 796 796 795 795 794 793 793 793 793 793 792 792 792 792 792 792 793 793 793 794 795 796 797 798 799 800 801 803 804 805
801 802 803 804 804 804 805 805 806 807 808 808 809 809 810 811 811 812 812 813 813 813 814 814 814 814 814 815 815 815 815 814 814 814 814 813 813 813 813 813 812 812 811 811 810 810 809 807 806 805 803 802 801 800 800 799 799 798 798 798 797 796 796 796 795 795 795 795 795 796 796 796 796 797 797 797 798 799 800 800 801 802 803 804 805 807 808
800 800 801 802 802 802 803 804 804 805 806 806 806 807 808 809 809 810 810 811 812 812 812 813 813 813 814 814 814 814 814 813 813 814 814 814 814 813 813 812 812 811 811 811 810 810 809 808 806 805 804 803 802 802 802 801 800 800 800 799 799 799 798 798 798 798 798 798 798 798 798 799 799 800 800 801 801 802 802 803 803 804 805 806 807 809 810
798 798 799 800 800 801 801 802 803 803 803 804 804 804 805 806 807 808 808 809 810 811 811 811 812 812 812 813 813 813 813 813 812 813 813 814 814 814 813 813 812 811 811 811 811 810 809 808 807 806 805 804 804 804 803 802 802 802 801 801 801 801 800 800 800 800 800 801 801 801 801 801 802 802 803 803 804 804 805 805 806 807 808 808 809 810 811
796 797 797 798 799 799 800 800 800 800 800 801 801 802 802 804 805 805 806 807 808 808 809 809 810 811 811 811 812 812 813 812 812 812 813 813 813 813 813 813 812 811 811 812 811 810 809 808 807 806 806 805 805 805 804 804 803 803 803 803 802 802 802 802 802 802 803 803 803 803 803 804 804 804 805 805 806 806 807 807 808 808 809 810 811 812 813
794 795 795 795 796 797 797 797 797 797 797 797 798 799 800 801 802 802 803 804 805 806 806 807 808 808 809 810 810 811 811 812 812 812 812 813 813 813 813 813 812 811 811 812 812 811 810 809 808 808 807 807 807 806 806 805 805 805 804 804 804 804 804 804 804 804 804 804 805 805 805 806 806 806 807 807 807 808 808 809 809 810 811 811 812 813 814
792 792 792 792 793 793 794 794 794 794 794 795 796 797 798 798 799 800 801 802 802 803 804 804 805 806 807 807 808 809 810 810 811 811 812 812 812 812 812 812 812 811 811 811 812 811 811 810 809 809 809 808 808 807 807 807 807 806 806 806 806 806 806 806 806 806 806 806 806 807 807 807 808 808 808 809 809 809 810 810 811 812 812 813 813 814 815
790 790 790 791 791 791 791 792 792 793 793 793 794 794 795 796 796 797 798 799 800 801 801 802 802 803 804 805 806 807 808 809 809 810 811 811 812 812 811 811 811 812 811 812 812 812 811 811 810 810 810 810 809 809 808 808 808 808 808 807 807 807 807 807 807 807 807 807 808 808 809 809 810 810 810 811 811 811 811 812 812 813 813 814 814 815 815
Wind_Speed
6 7 8 8 8 8 8 8 8 8 8 5 3 3 6 6 3 2 7 13 12 9 8 8 7 7 8 9 9 9 10 10 11 12 13 13 13 12 13 13 13 13 12 12 14 14 13 13 12 12 11 10 10 10 10 9 9 9 8 7 6 5 3 2 1 1 0 1 3 5 6 8 10 11 11 11 12 13 13 13 13 13 14 15 15 15 15
8 6 6 7 8 7 7 8 8 8 9 9 8 7 7 7 7 7 10 14 13 9 8 8 8 8 8 9 9 10 11 11 12 13 13 13 13 13 13 13 13 12 12 13 14 14 14 14 13 12 12 12 12 12 11 10 9 9 7 7 6 5 4 3 3 2 1 1 3 4 5 7 8 9 10 11 12 13 14 13 13 12 13 15 16 16 16
8 7 6 6 6 6 6 5 5 5 6 6 6 7 6 7 8 9 12 13 10 7 7 9 8 8 9 10 10 11 10 11 12 13 14 13 13 13 12 12 13 13 13 14 15 15 14 14 13 13 13 13 13 13 12 11 10 9 8 7 6 5 4 3 3 2 1 1 2 4 5 6 7 7 8 9 11 12 12 12 12 12 13 14 15 15 15
7 8 7 6 4 2 4 6 4 1 3 3 4 4 4 3 5 9 9 7 7 7 8 9 9 10 12 12 12 11 10 11 13 14 14 13 13 13 12 12 12 13 13 14 14 15 14 14 14 14 13 13 13 12 12 11 10 9 8 8 6 5 4 3 3 2 2 2 2 3 4 5 7 7 8 9 9 11 11 12 12 12 13 15 15 15 15
6 8 9 7 5 4 6 6 3 3 4 4 3 3 3 4 1 4 3 5 8 9 9 10 11 11 12 11 11 10 11 12 13 13 13 13 13 13 12 12 12 12 13 14 15 15 15 15 15 14 13 13 12 11 10 10 9 8 8 8 7 6 5 5 4 3 1 2 2 3 4 5 6 7 8 9 9 10 11 12 13 14 15 16 16 17 17
5 7 8 7 7 7 3 0 2 3 4 7 6 3 2 2 2 2 5 9 12 11 10 11 11 11 11 11 11 10 10 10 11 12 12 12 11 11 11 11 11 11 12 14 14 15 15 15 14 14 14 12 11 10 9 9 8 7 7 7 7 7 6 6 5 4 2 2 2 3 4 5 6 7 8 8 8 9 10 11 13 14 16 17 18 18 18
4 7 8 7 7 4 1 2 2 2 3 8 10 8 5 3 4 8 11 12 12 10 10 11 12 12 13 12 12 12 11 10 10 10 9 9 9 9 9 9 9 11 12 13 14 14 14 14 14 14 14 13 11 10 9 9 8 7 6 6 6 6 6 6 6 5 4 3 3 3 3 5 6 8 9 9 9 9 9 10 11 12 14 15 15 16 16
3 6 8 6 2 2 4 4 5 5 6 9 10 8 6 5 6 11 13 12 11 11 11 11 11 12 13 12 11 11 11 9 8 8 8 8 8 8 7 7 9 11 11 12 12 11 11 12 13 13 13 13 12 10 10 9 8 7 6 5 5 5 5 6 6 6 5 5 5 4 4 5 6 7 9 10 11 10 10 11 11 11 12 12 13 13 13
3 6 7 3 2 3 5 5 5 3 3 4 2 3 5 4 3 8 12 13 13 12 11 11 10 10 10 9 8 9 9 8 8 8 8 8 7 7 7 7 9 11 11 11 11 10 11 13 14 14 14 14 12 11 10 10 9 8 6 6 6 6 5 6 6 6 6 6 5 6 6 6 6 6 7 8 9 9 9 10 11 12 13 13 12 12 11
4 6 7 5 4 4 4 6 5 3 3 2 3 1 5 4 2 7 12 13 13 12 11 10 9 7 6 6 6 7 7 8 7 8 8 8 8 8 9 10 11 12 12 13 12 12 13 14 14 14 14 14 12 11 11 11 11 9 8 8 8 8 8 8 7 7 7 7 6 6 7 7 8 8 8 8 8 8 8 8 9 10 12 12 11 11 11
4 6 8 7 5 1 3 5 3 3 3 3 3 3 5 7 7 8 11 12 11 10 9 8 5 4 5 5 5 5 6 7 7 7 7 8 9 9 11 12 13 13 13 12 12 13 13 13 13 13 13 13 12 11 11 11 11 10 9 9 10 10 10 9 9 9 8 8 8 8 8 8 8 9 10 9 8 8 9 8 8 8 9 10 10 10 10
4 5 6 4 1 3 3 2 2 4 3 2 4 6 6 9 9 8 9 10 9 7 7 5 2 1 0 4 6 5 5 6 7 7 7 8 9 9 11 12 12 12 11 11 12 12 12 12 13 13 12 12 11 11 10 11 11 10 9 10 11 12 11 11 10 10 9 9 9 9 9 8 8 9 10 10 10 10 10 9 8 9 9 8 9 9 10
5 5 6 3 3 4 3 3 5 5 4 3 5 3 5 10 10 8 8 9 7 5 4 3 2 4 5 6 6 5 5 6 7 7 8 8 8 9 10 10 10 11 11 10 11 11 11 11 12 12 12 11 11 11 11 11 11 11 11 11 12 13 13 12 12 11 11 10 10 10 11 10 9 9 10 11 11 11 11 10 9 10 10 10 10 10 11
3 4 5 4 2 3 4 4 4 4 3 2 2 2 6 10 10 9 9 8 7 6 6 5 6 7 7 7 6 5 6 6 6 7 8 9 9 9 9 9 9 10 10 9 9 10 10 10 11 11 10 11 12 11 11 12 12 12 12 12 13 13 13 14 14 13 13 12 11 11 11 11 10 10 10 10 11 11 12 11 10 12 13 12 12 12 13
2 4 5 5 1 3 3 2 1 1 2 2 4 5 7 9 9 9 8 8 7 6 7 7 7 6 7 6 5 5 5 6 6 8 9 9 9 9 9 9 9 10 10 9 9 10 10 10 10 9 10 11 11 11 12 13 13 13 13 13 14 14 14 14 15 15 15 14 13 12 11 11 12 11 10 10 11 12 13 13 12 14 15 15 14 14 13
3 4 3 1 1 3 2 2 3 5 5 4 6 6 7 8 7 6 7 7 7 6 6 6 6 6 5 5 5 5 5 6 7 8 8 8 8 9 9 9 9 10 10 10 10 10 10 10 10 10 10 11 11 12 13 13 14 14 14 14 15 15 15 15 16 16 16 16 15 14 13 12 12 13 11 10 11 13 14 15 15 15 15 16 17 16 15
3 2 3 4 3 5 5 5 7 9 9 7 6 6 7 6 5 5 5 6 6 6 5 5 5 5 5 4 4 5 5 6 7 7 8 8 8 9 9 9 10 10 11 11 11 11 11 11 11 11 10 11 13 14 14 14 14 15 15 15 15 16 16 17 17 17 17 17 17 16 15 14 13 14 13 12 12 14 15 16 16 16 16 17 17 16 15
6 6 6 6 6 7 8 8 8 9 9 8 7 7 7 6 6 6 5 6 6 6 5 4 4 4 4 4 4 4 5 5 6 7 7 7 8 9 10 10 11 11 11 11 11 11 12 12 11 11 11 11 13 14 14 14 15 15 16 16 16 17 17 17 18 18 19 19 18 18 18 16 15 15 15 14 14 14 15 15 13 13 14 17 18 17 16
3 3 6 7 7 8 8 7 8 8 8 8 7 7 6 6 6 6 6 6 5 5 6 5 4 4 3 4 4 4 4 4 5 6 6 8 9 9 10 11 11 11 11 11 11 12 12 12 12 12 13 13 14 15 16 16 17 17 17 17 17 17 17 17 18 19 20 20 19 19 18 18 17 16 16 16 15 15 16 16 14 11 9 10 12 16 17
2 5 8 7 6 6 6 5 5 5 6 7 6 6 6 6 6 6 6 5 5 4 4 4 3 3 3 3 4 4 4 4 5 6 8 9 10 10 11 11 11 11 11 11 12 12 13 13 14 14 15 15 16 17 17 17 18 18 19 19 19 19 19 19 18 19 19 20 20 19 19 19 20 19 17 18 18 17 17 18 17 16 15 13 11 10 11
5 7 8 7 6 6 5 4 5 5 5 6 6 5 5 5 5 6 6 5 4 4 3 3 4 4 3 4 5 5 5 5 6 8 10 11 11 11 11 11 10 11 11 11 12 12 12 13 14 14 15 16 17 17 18 18 18 19 19 20 21 21 21 20 19 19 19 19 20 20 20 21 21 21 19 18 17 16 17 18 19 20 22 23 20 14 8
3 5 8 7 4 4 5 6 6 5 4 4 4 4 3 4 4 4 4 4 3 3 3 4 4 4 4 5 6 6 6 6 8 10 11 12 12 12 12 11 10 10 10 11 12 13 13 13 14 15 16 17 18 19 19 19 19 20 20 21 21 21 20 20 20 19 19 19 19 19 20 21 21 21 19 19 19 17 14 15 19 22 24 26 27 23 17
3 6 8 5 1 2 6 7 6 5 3 3 3 3 3 4 4 3 2 2 2 2 3 3 4 4 5 6 6 6 7 8 10 11 12 12 13 12 11 11 10 10 11 12 13 13 14 14 15 16 18 19 20 21 21 20 20 20 20 21 21 21 20 20 20 19 20 20 19 18 19 20 21 21 19 18 20 20 18 16 17 20 22 25 27 27 26
5 7 7 4 3 4 7 6 6 5 3 2 3 3 3 3 2 2 3 3 3 3 4 4 5 6 6 7 7 7 8 9 10 11 12 11 11 11 10 10 10 11 12 12 13 14 14 15 17 18 20 21 22 21 21 20 20 20 20 21 21 21 21 21 20 20 20 20 20 20 19 19 20 22 20 16 15 16 19 20 20 21 23 25 25 24 26
5 6 6 6 6 6 6 5 5 4 2 2 2 2 2 2 2 2 2 2 3 4 4 5 5 6 6 6 7 7 8 9 10 11 11 10 8 8 9 9 10 11 12 13 14 14 15 17 18 20 21 21 21 21 20 19 20 20 21 22 22 22 22 21 21 21 20 20 20 21 20 19 20 21 21 20 16 12 12 14 18 20 21 22 23 23 26
6 6 6 6 6 5 4 3 3 4 3 3 2 1 1 2 2 2 2 2 3 4 4 5 5 5 5 6 7 7 8 9 9 9 9 8 7 7 8 8 10 11 12 13 14 15 16 18 20 20 21 21 20 20 19 19 19 20 21 22 23 24 24 23 22 21 20 20 20 20 20 19 20 21 21 21 19 15 13 12 13 14 16 17 17 18 21
5 5 5 4 4 4 2 1 2 4 4 3 1 0 0 1 1 1 1 1 1 2 3 4 4 5 5 5 6 7 7 8 8 7 7 7 7 7 8 9 11 12 13 13 14 15 17 19 20 20 21 21 20 19 18 18 19 20 21 22 23 23 24 25 25 23 21 20 19 19 18 18 18 20 21 20 19 18 15 15 15 14 14 16 15 13 13
5 4 2 0 1 2 2 2 2 4 4 2 1 1 1 2 2 2 1 0 0 0 2 3 4 5 5 5 6 6 7 7 7 7 6 6 7 7 8 10 11 12 13 13 13 15 17 18 19 20 21 20 18 18 18 18 18 19 20 21 21 21 21 22 23 23 22 20 19 18 18 17 17 18 20 19 19 18 16 15 16 14 12 13 14 14 13
5 3 1 2 2 2 3 4 4 4 4 2 1 1 2 3 2 2 1 1 1 1 3 4 4 5 6 5 6 6 6 7 7 7 6 6 7 8 9 11 12 12 12 11 12 14 16 18 19 20 20 19 18 18 18 17 17 18 19 21 22 21 19 19 19 20 20 19 19 19 17 17 18 18 18 18 18 18 16 14 14 12 11 13 13 13 12
4 4 2 2 2 2 4 5 5 4 4 3 3 2 3 3 2 2 1 1 2 2 3 4 5 5 6 6 6 6 7 8 9 8 7 7 7 8 10 11 11 11 10 10 12 15 16 18 19 20 20 20 19 19 18 17 18 19 20 20 20 18 18 17 17 17 16 15 16 17 17 17 17 18 17 16 16 16 15 13 12 11 11 13 13 14 15
5 4 3 3 3 3 4 4 4 4 4 4 4 3 3 3 3 2 2 2 2 2 3 4 5 5 5 6 6 6 7 9 10 9 8 7 8 9 10 10 9 8 9 12 14 14 15 17 19 20 21 21 19 18 18 18 19 20 20 19 17 14 13 13 14 15 14 13 14 14 14 15 16 17 16 15 15 15 14 12 11 10 10 11 11 12 16
7 6 5 5 4 4 4 4 4 4 5 4 4 4 4 3 3 3 3 3 3 3 3 3 3 3 4 5 6 6 7 11 12 9 7 8 10 10 10 10 9 9 11 13 13 14 15 17 19 21 21 20 18 18 17 17 18 18 17 16 15 12 10 8 9 11 12 12 12 11 12 13 15 16 16 13 12 14 14 12 11 10 10 10 10 11 16
6 4 5 5 5 5 5 5 5 5 5 5 5 5 4 3 3 4 4 4 4 4 4 4 3 2 2 5 6 6 8 11 10 7 6 10 12 10 10 11 11 10 11 11 11 12 13 14 17 21 21 19 17 17 16 16 16 16 14 13 11 9 8 6 6 6 7 9 9 10 12 12 12 12 12 11 11 12 12 10 10 10 10 9 9 11 16
3 1 1 2 4 5 5 5 5 5 5 6 6 6 4 4 4 4 3 4 5 5 4 4 5 4 3 5 6 6 6 7 7 6 8 11 12 10 11 12 11 11 11 9 8 11 12 13 16 20 19 17 16 16 16 15 15 14 13 12 9 7 7 5 2 3 5 7 8 9 10 8 6 4 4 5 7 9 9 8 8 9 9 9 10 12 16
2 1 1 1 3 4 4 5 5 6 6 6 5 5 4 4 4 3 3 4 5 4 3 4 6 7 6 6 7 5 4 4 6 8 10 11 11 11 12 12 10 11 11 8 7 10 13 13 16 19 18 16 16 16 15 16 15 12 12 11 9 7 6 5 2 2 4 4 5 6 4 2 1 2 4 5 5 7 9 10 9 9 10 10 11 12 16
3 3 2 2 2 3 4 5 5 7 7 6 6 6 6 4 4 4 4 4 4 3 3 5 7 9 8 8 7 5 4 4 5 7 9 10 10 10 10 9 9 10 10 8 9 13 14 15 17 18 16 16 17 16 15 16 15 11 11 11 9 7 7 6 4 2 2 3 4 4 5 5 5 5 7 8 7 7 9 10 10 9 9 10 12 14 16
4 3 3 2 2 4 5 5 5 6 7 6 6 7 6 5 4 4 4 4 3 2 3 5 7 9 9 8 6 6 5 4 4 5 7 8 8 8 7 7 7 8 8 9 13 15 15 16 17 16 14 15 17 16 17 18 15 12 11 11 10 9 8 7 7 7 8 8 7 8 8 7 7 8 9 8 7 8 10 10 9 9 9 10 12 13 15
5 4 3 3 4 5 5 5 5 6 6 6 6 6 5 4 4 4 4 3 3 3 3 5 6 7 8 7 6 7 7 5 4 5 6 7 7 6 6 5 6 7 7 11 15 16 15 16 17 15 13 14 15 15 18 20 17 13 12 11 10 10 10 10 9 9 9 8 7 8 8 8 7 8 8 8 8 9 10 10 10 10 10 11 12 13 15
6 5 5 4 5 6 6 6 6 6 6 7 7 6 5 4 4 4 4 3 3 3 4 5 5 6 6 5 6 7 8 6 5 5 6 6 6 6 4 3 5 6 8 12 14 13 12 14 15 12 11 13 13 13 15 18 17 14 13 13 12 11 11 11 11 10 9 9 9 9 8 8 7 6 6 7 9 10 12 12 11 11 11 11 12 14 14
6 6 6 6 6 6 6 7 7 7 7 7 6 5 5 4 4 4 4 3 2 3 4 4 5 5 5 4 4 4 5 6 5 5 5 5 6 5 4 1 4 6 9 12 12 11 11 14 14 11 11 12 12 11 13 14 15 14 14 14 14 13 12 12 12 11 10 11 11 11 10 10 9 8 8 7 7 8 10 11 11 11 12 13 14 14 15
6 6 7 7 7 7 7 7 8 8 8 8 7 6 5 4 4 4 4 3 2 3 4 4 5 4 3 3 3 3 3 4 4 4 4 5 5 4 2 2 5 7 9 9 10 11 11 12 12 11 11 11 10 10 12 12 12 13 14 14 14 14 14 13 13 13 13 13 13 12 12 12 12 12 11 10 10 10 11 11 12 13 14 14 14 16 18
8 7 7 7 7 7 7 8 8 8 9 9 8 7 6 5 5 4 4 2 2 3 4 4 4 4 3 3 3 3 2 3 4 3 3 2 3 3 3 4 5 6 7 8 9 9 9 9 10 11 12 11 9 9 11 11 10 11 12 13 13 14 14 14 14 13 13 13 13 13 13 12 12 13 13 12 12 13 13 13 14 15 16 15 16 18 21
10 9 8 8 8 7 8 8 8 9 9 9 9 9 7 6 5 4 4 3 3 3 3 3 4 5 4 4 4 3 3 3 3 3 2 2 1 2 3 4 5 5 6 7 8 8 8 9 10 10 11 10 9 10 10 10 9 10 11 12 13 13 13 14 14 13 13 13 13 13 13 12 13 13 13 13 14 15 15 15 16 17 17 18 18 19 20
10 10 10 9 9 8 8 8 8 9 9 9 9 9 8 7 6 5 5 4 4 3 3 4 4 5 5 5 4 3 2 2 1 2 2 2 2 1 2 4 5 5 5 5 6 6 7 8 9 10 10 9 10 10 9 8 8 10 10 11 12 12 13 13 13 13 13 13 13 13 13 13 13 14 14 14 14 15 15 15 14 14 14 14 14 15 17
10 10 10 10 10 10 9 9 8 8 8 8 8 9 10 9 7 6 5 5 5 4 3 4 4 5 5 5 4 3 2 1 1 2 2 1 1 1 3 4 4 4 4 4 4 5 6 7 8 9 8 8 10 10 9 8 8 9 10 11 11 12 12 12 13 12 12 12 12 12 12 13 13 13 13 13 13 13 13 13 13 12 12 13 13 13 13
9 9 10 10 10 11 11 10 9 8 7 7 8 9 10 10 9 8 7 6 6 5 4 4 4 4 5 5 4 3 2 2 1 1 2 2 1 1 3 4 4 2 2 3 4 4 4 5 7 7 6 7 9 9 8 7 8 9 10 10 11 11 11 12 12 12 12 12 12 12 12 12 12 12 12 12 12 11 11 12 13 13 13 14 14 14 13
8 8 9 10 10 10 10 9 9 8 9 9 9 9 10 11 11 10 9 7 6 6 5 5 4 4 5 5 5 4 4 3 2 2 1 0 1 1 2 5 5 3 3 3 4 3 3 5 5 5 5 6 8 7 7 7 8 8 9 10 10 10 10 11 11 11 12 12 12 12 13 13 12 12 12 12 12 11 11 12 12 12 12 13 13 13 12
6 7 7 8 8 8 9 9 10 10 11 11 10 9 9 10 11 11 10 9 8 7 7 6 6 5 5 6 5 5 4 4 3 2 3 2 1 1 1 2 2 2 3 2 3 3 3 4 5 5 5 6 7 6 6 7 8 8 8 9 9 9 9 9 9 10 10 10 10 10 11 11 11 11 11 11 11 11 11 12 12 11 11 11 11 11 11
6 6 6 6 7 8 8 9 10 10 11 12 12 11 10 9 10 11 11 10 10 9 8 8 7 7 7 7 6 6 5 5 3 2 3 3 2 1 1 2 2 1 2 1 1 2 3 4 4 4 6 6 6 6 7 8 8 9 9 9 9 9 9 9 9 9 9 9 9 9 9 10 10 10 10 10 10 10 10 10 10 10 10 10 9 9 9
7 7 6 7 7 8 9 9 10 10 10 11 11 11 10 10 10 10 11 11 11 10 9 9 8 8 8 8 7 6 6 5 4 3 3 4 3 2 2 1 2 1 1 1 0 1 2 3 3 5 6 5 5 6 7 7 8 9 9 10 10 10 10 10 10 10 9 9 9 9 9 9 9 9 9 9 9 9 9 9 9 9 9 9 8 8 7
7 7 8 8 8 8 9 10 10 10 10 10 9 9 10 10 10 10 11 11 11 11 10 10 9 9 8 8 8 7 7 7 6 6 5 5 4 4 4 3 2 1 1 1 1 1 1 1 2 3 4 5 5 6 7 7 8 8 8 9 9 9 10 10 10 10 10 10 10 10 10 10 9 10 10 9 9 9 8 8 8 8 8 8 7 7 7
9 8 8 8 9 9 10 10 10 9 10 10 10 10 11 11 11 10 10 11 12 12 12 11 10 10 9 9 9 8 8 8 7 7 7 6 6 5 4 4 3 2 1 2 2 1 1 2 3 3 3 4 5 6 7 7 7 8 8 8 8 9 9 9 9 10 10 11 11 11 11 11 10 11 10 10 9 9 9 8 8 8 8 8 8 8 8
Wind_Direction
82 64 49 43 58 68 62 60 59 51 50 54 65 45 8 350 300 202 122 118 116 113 117 117 113 114 109 105 108 112 112 109 105 105 102 97 94 91 89 87 86 85 83 79 77 77 77 76 75 75 74 71 67 64 64 65 62 60 61 62 66 72 75 67 43 15 300 238 237 234 227 221 219 216 215 219 219 215 208 206 205 203 198 194 191 189 184
130 113 82 63 58 51 46 50 47 42 47 54 65 68 55 56 68 83 101 104 100 107 122 117 114 115 110 108 110 110 111 107 103 100 98 95 92 89 88 87 85 84 83 82 80 78 77 76 75 74 71 67 63 57 55 55 53 54 59 61 58 57 55 47 34 20 3 246 235 229 223 222 222 222 225 225 221 218 216 213 212 210 205 199 194 191 186
154 152 129 102 71 41 22 14 9 16 30 50 69 70 62 68 84 96 101 99 99 112 118 114 118 119 113 108 101 97 98 98 97 94 90 88 85 83 82 82 82 81 77 77 77 76 74 74 73 72 70 67 64 59 55 53 52 52 56 60 60 56 51 41 25 14 349 276 236 230 226 223 223 225 228 226 221 219 219 217 214 209 205 201 198 198 196
186 180 175 157 116 48 319 294 283 360 32 42 61 54 19 21 107 127 123 111 118 131 127 121 120 115 108 100 92 89 85 84 87 87 84 81 77 74 72 71 71 73 72 69 67 66 67 67 66 65 66 66 63 58 56 55 54 55 56 59 62 63 62 53 38 22 345 310 264 244 238 235 234 235 234 231 229 228 227 225 221 216 213 210 208 210 211
192 178 182 177 175 213 255 261 223 130 117 125 102 67 14 360 76 150 136 107 120 134 135 125 116 108 100 92 87 85 80 75 75 77 78 76 72 66 62 59 58 58 60 59 56 54 54 54 54 55 56 58 58 56 55 55 57 58 59 61 62 62 63 63 59 48 357 315 287 266 251 243 240 237 235 232 231 232 232 232 232 229 226 223 223 224 224
188 161 166 180 207 220 235 235 131 123 150 160 143 109 66 17 10 65 89 110 127 135 134 124 114 103 93 87 83 79 78 77 71 66 65 65 65 62 54 50 48 45 46 47 45 43 43 42 43 45 44 44 48 49 48 48 48 49 52 55 55 54 52 49 48 41 24 350 306 289 274 260 247 239 235 229 226 230 233 235 236 235 233 231 231 231 230
177 145 162 196 216 220 28 62 137 126 139 141 121 98 84 87 115 118 114 122 130 126 121 117 110 104 96 87 81 74 70 71 69 63 57 53 56 56 47 40 43 43 42 41 38 34 34 33 33 34 31 26 30 36 37 37 35 30 32 36 38 38 35 32 29 18 6 351 325 304 288 272 258 247 240 231 224 225 230 234 235 234 235 233 232 231 229
157 164 190 208 192 101 78 96 129 131 140 143 126 101 79 76 119 133 127 125 127 121 117 115 112 111 104 89 79 74 70 72 74 70 62 56 55 56 50 41 42 42 42 46 44 35 31 33 31 28 23 15 15 21 23 23 22 17 14 15 17 19 17 16 12 3 352 339 321 304 291 280 267 254 245 237 233 229 229 233 232 230 231 231 229 228 225
208 210 207 186 122 148 136 123 132 129 131 156 159 105 94 71 103 135 132 130 130 126 125 125 124 127 120 99 82 76 73 74 77 72 67 64 63 62 56 46 44 42 37 39 42 34 29 29 26 20 16 10 7 8 8 7 5 2 1 3 6 5 360 359 357 350 342 332 317 301 289 280 272 263 251 244 239 232 230 233 231 227 229 229 227 224 221
228 230 220 207 209 203 145 123 121 65 26 334 306 114 121 114 128 138 135 134 134 133 135 136 140 156 153 120 92 78 69 63 64 65 62 57 51 47 40 32 31 32 27 25 26 24 23 23 19 13 7 4 1 358 358 357 351 348 350 354 355 352 348 344 339 332 328 323 316 305 290 278 270 263 254 247 241 232 228 231 230 226 224 224 224 219 215
215 233 235 228 227 225 93 113 109 41 359 312 279 228 159 142 142 142 137 135 137 138 140 143 161 211 201 140 99 72 62 59 52 48 47 42 36 33 30 24 18 17 16 14 12 14 14 13 9 3 359 358 355 350 349 347 340 337 341 342 341 338 336 333 327 322 317 311 309 305 296 288 280 267 254 246 240 233 228 226 221 219 215 214 215 211 207
209 230 246 245 124 68 76 83 29 3 346 291 240 224 172 143 144 146 139 138 139 143 153 165 180 291 290 111 94 68 59 62 54 43 38 31 25 23 23 18 11 6 5 4 4 5 5 360 357 353 350 348 344 339 336 332 327 326 327 327 325 323 321 320 317 313 308 304 301 299 296 295 292 278 260 247 237 230 229 224 214 208 205 202 199 193 192
210 214 236 240 92 80 65 30 7 344 315 242 221 207 129 129 137 134 127 125 123 127 149 166 114 69 64 80 86 68 52 50 44 37 32 25 20 19 16 12 6 1 358 357 357 355 353 350 347 346 343 338 330 326 321 316 314 313 313 314 313 311 310 307 305 304 303 301 299 295 291 289 288 283 267 251 240 232 231 226 210 197 192 187 178 168 168
227 213 232 236 139 69 26 19 15 335 300 216 148 92 110 122 121 113 110 103 93 91 84 75 84 86 77 73 72 58 43 35 27 21 18 13 11 10 7 5 4 356 349 347 347 345 343 341 339 337 334 326 320 315 310 306 306 306 305 304 304 303 301 298 297 298 297 296 297 293 288 282 281 279 267 253 243 239 235 226 207 191 185 182 175 165 161
249 203 218 241 206 69 9 339 48 10 337 110 109 106 114 112 104 103 101 86 74 77 78 76 79 81 75 64 53 44 36 24 14 10 7 3 0 359 355 354 357 350 341 338 338 337 335 334 333 329 322 315 310 307 303 303 304 303 299 297 295 293 291 290 290 289 287 288 289 287 283 278 273 271 265 253 243 238 236 228 215 202 191 184 178 171 166
277 225 204 262 77 80 31 340 96 85 78 103 117 114 110 105 103 105 96 80 69 64 71 80 79 74 69 55 39 28 18 10 2 359 357 354 353 350 346 346 348 343 337 335 334 332 333 334 331 326 321 316 311 307 305 306 306 302 297 293 288 283 280 279 279 279 279 279 278 277 278 275 268 262 258 251 242 236 231 226 221 212 199 189 182 176 170
22 31 70 82 95 94 80 77 91 90 86 90 99 107 107 97 85 83 85 84 73 58 59 75 76 66 55 41 29 13 359 355 351 347 348 348 346 343 340 342 345 341 336 334 332 332 335 335 331 328 324 318 312 309 309 309 308 304 300 296 289 282 277 274 271 271 271 271 270 269 269 268 265 259 252 244 239 234 228 225 224 218 207 197 189 180 172
96 73 83 102 105 100 92 84 81 78 74 71 73 85 91 76 62 63 69 71 67 54 48 55 60 55 37 18 11 358 345 343 343 343 344 344 343 341 339 341 343 339 334 332 332 332 334 334 330 325 317 310 307 307 308 307 304 302 300 298 293 287 282 276 271 268 266 265 265 263 260 259 258 256 250 242 234 225 219 218 221 217 210 205 198 188 177
141 103 112 116 108 106 103 92 82 72 68 65 64 70 79 75 69 70 71 73 74 64 55 50 47 46 30 7 355 346 336 337 344 345 345 344 342 340 340 340 338 334 332 332 332 332 333 329 324 320 316 313 310 309 308 305 302 299 297 295 293 291 288 283 276 270 264 261 259 257 255 253 250 250 246 239 231 220 212 210 210 206 210 219 214 201 187
118 117 128 126 115 118 118 104 99 93 85 85 87 90 98 101 98 98 100 98 90 79 72 62 36 17 14 6 355 346 339 342 345 344 343 342 339 336 337 336 334 331 330 328 327 329 328 323 320 319 318 316 313 311 309 306 303 298 295 292 290 289 288 286 282 277 270 262 257 254 252 250 247 247 244 236 231 225 217 214 210 202 202 217 231 221 193
116 124 142 147 139 143 149 131 111 107 102 101 103 104 109 111 109 108 106 94 78 67 58 36 5 353 2 5 355 344 338 340 341 340 340 337 333 332 333 332 330 328 326 324 324 323 322 321 321 320 317 315 314 312 308 305 301 296 292 289 286 286 286 283 280 278 275 268 260 255 252 250 247 244 239 234 233 231 225 223 218 209 206 216 229 238 230
157 144 156 162 159 153 156 147 126 111 105 104 106 108 107 101 97 97 94 85 73 58 40 19 360 353 355 353 347 338 332 335 337 336 334 331 328 329 329 327 325 325 324 323 322 320 320 320 319 316 314 312 312 310 306 303 299 293 288 285 282 281 281 280 279 277 274 271 267 260 254 250 247 242 236 233 233 235 232 223 218 217 219 223 228 231 229
83 119 140 148 23 83 126 138 136 123 112 103 103 102 95 88 82 67 47 36 24 22 24 15 2 353 343 339 339 333 325 328 332 331 328 326 323 324 324 323 322 324 324 322 319 318 318 316 313 312 310 308 307 307 305 301 296 292 287 284 280 277 274 275 277 276 273 270 270 266 259 252 246 242 237 232 230 230 229 217 206 207 212 213 215 216 213
87 118 124 102 64 89 112 124 126 117 107 97 93 94 95 95 82 22 1 3 2 3 2 353 350 346 336 331 331 325 321 324 327 326 324 321 317 317 318 317 318 320 320 318 316 314 312 311 311 310 308 306 306 305 303 299 296 291 286 282 278 274 271 270 271 271 270 269 267 265 263 257 249 242 237 231 223 221 224 221 211 202 200 200 201 205 207
100 117 107 86 78 88 102 115 119 110 99 90 90 90 77 37 1 344 350 8 6 354 343 337 338 338 331 326 323 321 320 322 324 323 319 314 312 312 312 313 316 317 315 312 310 309 310 312 312 311 308 308 307 305 302 299 294 289 284 279 275 272 269 267 265 264 264 266 265 261 259 256 250 244 238 233 223 205 200 211 213 208 205 207 209 212 215
89 108 113 101 91 98 118 138 136 132 126 113 105 114 64 29 12 350 345 356 354 344 336 331 330 329 326 321 319 317 316 317 320 319 313 309 311 311 310 314 315 312 310 309 308 309 312 313 313 312 310 309 308 306 302 298 292 287 282 277 274 271 266 263 261 259 258 260 262 261 258 255 250 243 238 236 231 214 186 175 183 192 197 200 205 211 218
103 120 135 135 125 137 162 167 117 134 144 146 149 253 217 120 133 199 276 350 5 349 337 332 328 325 321 316 315 316 314 314 317 316 310 311 313 311 312 315 313 310 311 311 311 313 314 314 314 313 311 310 309 307 302 297 291 286 282 278 274 271 266 261 258 255 255 256 257 259 260 258 253 245 237 233 231 225 208 190 187 191 189 186 193 205 213
121 121 134 150 111 137 144 126 125 142 157 174 264 294 219 180 185 208 230 185 131 286 325 334 333 327 321 319 319 319 317 317 318 318 316 316 314 313 315 315 314 315 315 313 315 317 317 317 316 313 310 311 312 310 306 302 295 289 284 280 276 271 266 261 255 251 249 249 250 253 255 259 260 252 239 230 227 226 220 212 209 204 186 180 196 209 210
141 135 113 60 63 94 133 149 160 165 172 195 248 231 200 199 209 219 220 187 196 256 313 329 332 329 325 323 322 320 321 324 324 321 322 323 320 320 320 318 317 317 314 313 320 323 322 321 317 313 314 319 320 316 313 309 303 297 293 291 286 276 266 259 253 249 245 243 244 246 249 256 262 257 242 232 227 223 220 219 215 199 166 160 173 176 171
153 160 157 128 133 161 165 166 176 182 187 203 216 204 202 218 239 248 245 233 240 271 312 326 330 333 333 329 325 323 324 326 323 317 319 325 322 319 320 320 320 320 319 320 324 325 323 321 318 317 320 324 324 321 319 316 312 309 307 308 304 289 270 259 253 249 244 241 241 242 244 248 254 252 243 233 225 220 218 213 201 181 160 154 154 149 147
156 160 167 161 171 191 188 183 190 197 203 213 214 202 203 225 250 268 272 262 260 276 306 319 326 336 341 339 335 326 319 321 321 313 308 314 318 322 327 325 316 309 309 312 316 320 321 320 321 324 326 326 325 323 321 319 317 316 318 325 328 317 295 274 257 246 243 242 239 241 245 245 244 243 239 231 221 216 213 201 186 174 161 152 147 146 151
156 160 172 182 195 208 206 199 203 212 213 214 214 213 215 228 256 279 285 289 288 284 286 299 316 335 343 340 335 325 317 319 319 307 294 306 321 332 338 332 315 303 305 311 316 319 318 319 326 333 333 330 328 325 322 321 320 319 324 332 336 334 325 300 266 245 243 244 242 244 250 248 239 232 227 221 215 211 206 196 185 176 169 165 160 157 162
173 179 192 199 205 213 215 212 218 224 218 209 212 222 227 237 263 280 288 294 289 277 275 276 263 259 305 320 323 323 323 323 319 302 291 311 326 336 341 337 329 322 322 322 321 319 317 319 329 336 334 332 331 330 328 327 326 326 329 333 333 336 336 316 282 255 244 241 242 248 251 247 238 226 215 209 208 204 198 191 183 175 172 169 159 158 169
205 242 245 207 210 223 231 228 222 219 215 209 213 223 228 239 262 278 291 297 291 279 269 250 227 222 262 301 310 314 319 324 321 306 303 317 328 335 340 342 340 337 335 328 317 319 323 325 332 337 338 337 338 338 335 333 334 336 337 336 335 341 347 340 298 262 253 240 236 244 248 245 241 222 195 187 188 178 162 152 155 159 154 139 127 139 165
188 181 129 180 219 237 248 243 222 210 209 207 209 222 232 240 258 272 281 288 287 278 253 233 225 226 251 283 294 293 294 311 313 307 312 324 332 335 339 344 342 338 337 332 327 333 335 332 336 344 348 345 345 346 344 343 344 347 347 346 346 354 4 14 10 270 257 232 214 215 211 185 145 125 106 100 115 134 130 125 131 139 139 132 128 140 161
179 180 170 192 218 221 227 232 215 203 201 196 194 213 228 236 255 271 274 275 277 266 238 234 230 229 244 269 281 277 280 305 314 313 323 334 335 332 334 335 330 329 331 334 342 346 340 334 342 354 359 355 354 355 354 354 356 355 353 357 3 8 14 25 31 28 57 91 105 112 109 103 100 99 94 91 95 106 108 111 121 134 139 138 136 141 152
187 189 179 182 192 191 198 204 198 196 197 191 192 210 225 236 261 280 284 281 274 250 223 230 231 231 243 263 269 257 256 279 303 312 324 333 332 325 320 318 324 333 335 337 344 345 337 338 352 3 5 3 6 7 5 8 11 6 2 8 14 14 22 39 52 56 63 73 82 89 92 90 86 86 88 91 97 101 100 101 108 117 121 124 126 130 137
176 181 178 171 171 176 179 178 179 187 191 190 198 214 229 245 275 295 294 277 261 230 214 226 231 230 237 249 251 245 246 257 280 301 319 333 332 320 309 323 348 351 339 338 343 338 330 340 358 4 359 1 8 9 10 17 21 18 13 18 21 19 26 40 51 55 57 60 69 81 85 80 75 76 78 77 78 85 91 95 100 105 108 112 119 125 129
172 177 178 175 177 180 178 176 181 188 193 198 206 216 227 244 271 292 290 273 254 237 234 235 227 220 222 229 236 237 239 245 268 298 319 330 324 303 285 331 9 354 335 338 340 332 331 350 1 357 350 358 3 2 8 19 26 26 23 26 29 29 32 36 42 48 51 47 44 50 58 60 59 60 62 65 69 77 84 89 94 99 105 113 121 125 125
181 181 181 183 188 191 191 192 195 197 201 209 218 225 236 252 272 286 284 270 250 247 254 250 237 228 230 241 252 244 231 233 256 289 305 307 302 284 265 329 18 350 336 343 346 340 347 359 358 346 346 357 358 358 6 18 25 29 32 32 34 36 39 40 42 46 48 47 47 48 49 53 56 57 59 66 74 81 88 92 94 99 105 111 115 116 117
192 188 188 190 194 199 202 204 206 206 208 214 224 234 247 264 281 287 284 279 265 255 256 252 245 244 248 263 281 280 243 232 247 270 278 282 293 293 293 16 14 347 338 350 358 354 354 356 349 346 353 355 352 360 14 19 22 31 37 37 38 41 43 44 47 50 51 52 54 55 56 59 62 63 67 73 78 85 92 96 98 102 106 106 107 111 118
204 200 201 202 204 205 207 210 213 216 216 219 224 230 240 256 271 274 270 268 268 265 258 244 241 249 260 268 276 279 260 245 253 260 259 276 327 341 345 3 359 341 342 358 360 352 351 352 349 355 5 4 1 15 27 26 26 35 42 42 43 45 45 45 48 52 55 58 59 58 59 64 67 68 72 76 80 85 91 94 95 99 104 105 107 113 120
214 211 213 215 215 215 215 215 218 222 224 225 224 225 231 244 260 263 253 238 240 257 258 236 224 227 236 249 260 263 246 236 244 246 225 192 78 7 354 353 343 336 352 7 359 349 354 1 358 2 13 20 25 33 35 33 36 44 47 46 48 50 51 51 53 53 55 58 59 58 59 63 68 71 73 75 78 81 83 85 88 94 100 106 111 116 121
220 219 221 223 222 220 220 221 223 227 231 231 227 224 226 234 246 253 247 235 231 240 250 241 228 223 228 240 253 259 249 234 250 265 240 193 164 114 23 2 344 337 354 10 2 354 360 5 5 11 24 37 43 40 35 36 46 53 52 51 52 54 55 57 58 57 57 57 58 59 60 63 69 73 75 76 78 80 81 82 86 92 96 99 104 110 116
225 224 226 228 226 223 223 225 228 230 233 232 227 221 223 231 240 246 246 241 234 228 230 235 232 227 227 234 244 255 265 273 296 314 315 312 124 83 30 4 345 340 357 10 4 359 5 13 14 16 27 42 48 42 35 38 50 57 61 62 60 59 60 61 61 60 60 61 60 62 63 64 68 73 75 76 77 80 82 84 85 88 92 94 96 99 103
229 227 225 225 225 225 225 225 226 225 225 226 225 223 224 230 237 240 241 241 237 230 225 225 226 224 224 226 230 232 234 232 231 285 343 352 3 22 8 4 5 17 38 29 13 360 5 20 23 19 25 43 47 40 36 43 51 57 65 70 69 65 65 66 64 64 65 65 65 68 70 70 72 74 75 78 80 83 85 86 88 89 91 94 97 99 101
234 231 227 227 229 228 222 214 210 211 213 219 226 228 227 228 232 237 239 238 233 228 224 219 216 214 212 214 221 226 226 221 213 204 203 268 269 293 348 360 10 40 70 48 23 18 28 33 25 19 30 46 46 37 38 48 53 55 63 70 74 73 73 72 71 71 71 71 73 74 74 74 76 77 77 79 81 82 83 86 90 93 94 96 98 100 101
238 236 232 231 231 228 215 203 201 206 213 220 230 236 234 228 229 233 236 234 228 224 222 220 215 209 204 205 214 228 236 238 232 207 192 197 208 221 284 317 346 52 77 50 8 9 18 4 352 2 30 45 43 39 43 50 53 56 60 66 70 73 75 76 78 78 75 74 77 78 76 76 78 79 79 80 80 81 83 86 89 92 95 97 98 99 99
241 243 239 230 224 220 213 208 210 215 219 223 229 234 233 228 226 228 229 230 228 226 224 221 217 210 205 203 205 212 223 234 245 217 179 185 200 203 220 276 308 34 79 62 318 324 338 340 354 32 54 53 49 53 58 59 59 60 64 67 69 71 73 77 81 83 82 80 79 78 77 76 77 77 79 81 81 82 84 85 87 93 99 99 96 97 100
237 237 237 233 227 222 220 220 225 230 230 230 230 227 220 219 224 227 227 227 228 228 228 225 220 213 208 206 204 202 204 212 219 210 189 187 194 190 184 234 278 264 154 159 231 333 353 3 31 55 60 56 58 65 68 68 68 68 69 71 74 76 78 81 83 84 84 84 83 81 80 79 78 78 80 82 83 84 87 88 90 98 104 102 98 100 103
241 243 246 249 246 239 234 234 240 243 241 237 229 216 208 214 226 232 229 225 226 228 228 228 226 220 212 206 203 200 197 197 201 204 200 196 197 196 193 203 228 235 163 154 187 309 353 35 80 77 65 65 75 79 77 77 77 76 73 73 76 78 79 82 84 84 85 87 88 86 85 84 84 83 83 84 85 88 90 91 93 95 96 95 98 102 104
249 252 256 260 260 254 247 242 242 243 240 235 227 213 205 210 222 227 221 218 222 228 230 228 226 223 218 212 207 201 194 191 195 200 199 197 199 201 197 196 203 209 201 194 202 203 141 137 136 117 90 86 93 93 88 85 85 82 79 78 79 80 79 80 84 87 88 88 89 90 89 89 90 90 88 87 87 88 89 90 92 94 95 96 98 101 103